[[{"header":{"parameterUnit":"m.s-1","parameterCategory":1,"la1":30.2991,"la2":30.254,"lo1":-89.0895,"lo2":-89.0444,"dy":0.0017,"dx":0.0017,"nx":28,"ny":28,"refTime":"2026-02-25T03:00:00:Z","depth":0,"parameterNumber":2,"parameterNumberName":"U-component_of_WINDS"},"data":[0,0,0,0,0,0,0,0,0,0,0,0,0,0,0,0,0,0,0,0,0,0,0,0,0,0,0,0,0,0,0,0,0,0,0,0,0,0,0,0,0,0,0,0,0,0,0,0,0,0,0,0,0,0,0,0,0,0,0.1799,0.1799,0,0.181,0.181,0.1811,0.1778,0.1777,0.1776,0.1775,0.1789,0.179,0.1792,0,0,0,0,0,0,0,0,0,0,0,0,0,0.175,0.1751,0.1799,0.1799,0.1799,0.181,0.181,0.1811,0.1778,0.1777,0.1776,0.1774,0.1789,0.179,0.1792,0,0,0,0,0,0,0,0,0,0,0,0,0,0.1767,0.1751,0.1799,0.1784,0.1783,0.181,0.181,0.1811,0.1778,0.1777,0.1775,0.1774,0.1788,0.179,0.1792,0.1835,0,0,0.1798,0.1799,0,0,0,0,0,0,0,0,0.1766,0.1769,0.1786,0.1785,0.1784,0.1791,0.1798,0.1819,0.1779,0.178,0.1775,0.1773,0.1791,0.1793,0.1798,0.1836,0.1836,0.1798,0.18,0.18,0.1801,0,0,0,0,0,0,0,0.1765,0.1769,0.1803,0.1786,0.1785,0.1777,0.1778,0.1802,0.1794,0.178,0.1778,0.1779,0.179,0.1797,0.1799,0.1836,0.1798,0.18,0.1801,0.1802,0.1909,0.191,0,0,0,0,0,0,0.1766,0.1768,0.1803,0.1804,0.1771,0.178,0.178,0.179,0.1794,0.1793,0.1781,0.1778,0.1794,0.1796,0.1799,0.1849,0.18,0.1802,0.1803,0.1907,0.1909,0.1911,0,0,0,0,0,0,0.1765,0.1769,0.1803,0.1785,0.1789,0.1782,0.1793,0.1791,0.1798,0.1794,0.1793,0.1788,0.1793,0.1796,0.1826,0.1849,0.1803,0.1805,0.1905,0.1908,0.191,0.1951,0,0,0,0,0,0,0.1763,0.1769,0.1785,0.1786,0.179,0.1829,0.1795,0.1793,0.1801,0.1797,0.1801,0.18,0.1792,0.1823,0.1828,0.1851,0.1807,0.1903,0.1906,0.1909,0.1947,0.1954,0.196,0,0,0,0,0,0.1762,0.1796,0.1786,0.179,0.1809,0.1831,0.1833,0.1822,0.1803,0.1819,0.1817,0.18,0.1846,0.1827,0.1832,0.1856,0.1902,0.1906,0.1909,0.1944,0.1953,0.196,0,0,0,0,0,0,0.18,0.1796,0.1785,0.182,0.1826,0.1825,0.1845,0.1831,0.1843,0.1839,0.1825,0.1826,0.1859,0.186,0.1839,0.1897,0.1871,0.1876,0.1896,0.1904,0.191,0.191,0.1808,0,0,0,0,0,0.1812,0.1829,0.1825,0.1857,0.186,0.1852,0.1861,0.1852,0.1857,0.186,0.186,0.1866,0.1882,0.1893,0.1907,0.1947,0.1947,0.1966,0.1972,0.1978,0.1983,0.2004,0.2012,0.1923,0.1923,0.1923,0,0,0.1838,0.1838,0.185,0.1864,0.1868,0.1886,0.1855,0.1875,0.1889,0.1863,0.1891,0.1891,0.1898,0.1933,0.1948,0.1935,0.2007,0.1982,0.1987,0.1989,0.2009,0.2017,0.2025,0.1926,0.1925,0.1925,0,0,0.1895,0.1896,0.1923,0.1927,0.1931,0.1926,0.1932,0.1933,0.1932,0.196,0.1941,0.1957,0.1984,0.1989,0.1996,0.2053,0.2039,0.2058,0.2093,0.2114,0.2121,0.2127,0.2148,0.2156,0.2063,0.2063,0.2063,0,0.1927,0.1953,0.1939,0.1961,0.1968,0.1944,0.1971,0.1976,0.1985,0.1991,0.1975,0.2009,0.2012,0.2048,0.2062,0.2067,0.2075,0.2059,0.2121,0.2127,0.2132,0.2153,0.216,0.2065,0.2065,0.2065,0.2065,0,0.1992,0.2011,0.2032,0.2041,0.205,0.2075,0.2065,0.2076,0.2066,0.2062,0.209,0.2092,0.2106,0.2114,0.2104,0.2149,0.214,0.2123,0.2096,0.2144,0.2162,0.217,0.2069,0.2068,0.2067,0.2067,0,0,0.2075,0.2075,0.2083,0.2087,0.209,0.2104,0.2127,0.214,0.2151,0.2158,0.2177,0.22,0.2184,0.2191,0.2182,0.22,0.2246,0.218,0.218,0.2193,0.2296,0.231,0.2319,0.2236,0.2237,0.2238,0.2296,0,0.2131,0.2171,0.2158,0.2199,0.2216,0.2193,0.2213,0.2217,0.2214,0.2228,0.2225,0.2242,0.2219,0.2223,0.224,0.2237,0.2267,0.2233,0.2255,0.2256,0.2255,0.2328,0.2343,0.2397,0.2303,0.2304,0.2305,0,0.2203,0.2212,0.2254,0.2254,0.226,0.2279,0.229,0.2303,0.2308,0.2304,0.2312,0.2298,0.2321,0.2293,0.2325,0.2302,0.2311,0.2311,0.2312,0.2315,0.2284,0.2334,0.2414,0.2423,0.2316,0.2315,0.2314,0,0.226,0.2282,0.231,0.2314,0.2315,0.2328,0.2329,0.2332,0.234,0.235,0.2355,0.2368,0.2375,0.2385,0.2375,0.2355,0.2409,0.238,0.2407,0.2408,0.2421,0.242,0.2504,0.2424,0.2424,0.2424,0.2424,0,0.2325,0.2351,0.2336,0.2353,0.2382,0.2368,0.2397,0.2395,0.2398,0.2415,0.2396,0.2412,0.2398,0.2413,0.2405,0.2434,0.2437,0.2435,0.2433,0.2437,0.2438,0.2444,0.244,0.2426,0.2426,0.2425,0.2425,0,0.2394,0.2384,0.2413,0.2411,0.2411,0.2433,0.2431,0.2447,0.2442,0.2463,0.2468,0.246,0.2476,0.2467,0.2485,0.248,0.2516,0.2509,0.2515,0.2513,0.2542,0.254,0.2633,0.2645,0.2556,0.2557,0.2558,0,0.2436,0.2456,0.2456,0.2465,0.2467,0.2483,0.2492,0.2477,0.2487,0.2493,0.2509,0.2524,0.2535,0.2563,0.2559,0.2573,0.2566,0.2598,0.2568,0.2572,0.2567,0.2567,0.2569,0.2604,0.2605,0.2606,0.2607,0,0.2513,0.2508,0.252,0.2531,0.2541,0.2549,0.2556,0.2565,0.2551,0.2563,0.2579,0.2588,0.2605,0.2621,0.2632,0.2633,0.2618,0.2616,0.2623,0.2629,0.2632,0.2631,0.2533,0.2614,0.2613,0.2613,0.2612,0.2612,0.2571,0.2588,0.259,0.2605,0.2608,0.2614,0.2629,0.2625,0.2639,0.2651,0.2642,0.2662,0.2666,0.2679,0.2682,0.2698,0.2685,0.2695,0.2698,0.2701,0.2705,0.2628,0.27,0.2699,0.2699,0.2699,0.2699,0,0.2648,0.2648,0.2661,0.2671,0.2682,0.2665,0.2672,0.2683,0.27,0.2704,0.2716,0.2735,0.2749,0.2746,0.2759,0.2772,0.2766,0.2777,0.2776,0.2777,0.2716,0.2708,0.2782,0.2782,0.2782,0.2782,0.2782,0.2782,0.2689,0.2717,0.2711,0.274,0.2739,0.2758,0.2763,0.2769,0.2773,0.2795,0.2806,0.2804,0.2805,0.2818,0.2831,0.283,0.2836,0.285,0.2846,0.2789,0.2781,0.2773,0.2767,0.2851,0.2851,0.2906,0.2906,0.2907]},{"header":{"parameterUnit":"m.s-1","parameterCategory":1,"la1":30.2991,"la2":30.254,"lo1":-89.0895,"lo2":-89.0444,"dy":0.0017,"dx":0.0017,"nx":28,"ny":28,"refTime":"2026-02-25T03:00:00:Z","depth":0,"parameterNumber":3,"parameterNumberName":"V-component_of_WINDS"},"data":[0,0,0,0,0,0,0,0,0,0,0,0,0,0,0,0,0,0,0,0,0,0,0,0,0,0,0,0,0,0,0,0,0,0,0,0,0,0,0,0,0,0,0,0,0,0,0,0,0,0,0,0,0,0,0,0,0,0,4.1932,4.1932,0,4.1933,4.1933,4.1933,4.1901,4.19,4.1899,4.1898,4.1899,4.19,4.1901,0,0,0,0,0,0,0,0,0,0,0,0,0,4.1901,4.1902,4.1932,4.1932,4.1932,4.1933,4.1933,4.1933,4.1901,4.19,4.1899,4.1898,4.1899,4.19,4.1901,0,0,0,0,0,0,0,0,0,0,0,0,0,4.1909,4.1902,4.1932,4.1916,4.1914,4.1933,4.1933,4.1933,4.1901,4.19,4.1898,4.1897,4.1898,4.19,4.1901,4.1934,0,0,4.1905,4.1905,0,0,0,0,0,0,0,0,4.1909,4.1911,4.1918,4.1917,4.1915,4.1915,4.1922,4.1933,4.1901,4.1906,4.1898,4.1897,4.1905,4.1906,4.1909,4.1934,4.1934,4.1905,4.1906,4.1906,4.1906,0,0,0,0,0,0,0,4.1908,4.191,4.1932,4.1918,4.1917,4.1908,4.1908,4.1924,4.1913,4.1906,4.1903,4.1904,4.1904,4.1908,4.1909,4.1934,4.1905,4.1906,4.1907,4.1907,4.1987,4.1988,0,0,0,0,0,0,4.191,4.191,4.1932,4.1932,4.1909,4.191,4.191,4.1917,4.1913,4.1911,4.1905,4.1902,4.1906,4.1907,4.1909,4.1948,4.1906,4.1907,4.1908,4.1985,4.1987,4.1989,0,0,0,0,0,0,4.191,4.1912,4.1932,4.192,4.1922,4.1912,4.192,4.1917,4.1921,4.1912,4.191,4.1911,4.1906,4.1907,4.1928,4.1947,4.1908,4.1909,4.1984,4.1986,4.1988,4.2026,0,0,0,0,0,0,4.1909,4.1912,4.1925,4.1921,4.1923,4.1952,4.1921,4.1918,4.1923,4.192,4.1917,4.1915,4.1905,4.1926,4.1929,4.1948,4.191,4.1982,4.1985,4.1987,4.2023,4.2029,4.2034,0,0,0,0,0,4.1908,4.1936,4.1926,4.1929,4.1939,4.1953,4.1954,4.1941,4.1925,4.1937,4.1932,4.1915,4.1945,4.1929,4.1932,4.1951,4.1981,4.1984,4.1987,4.202,4.2028,4.2034,0,0,0,0,0,0,4.1943,4.1935,4.1924,4.1952,4.1953,4.1947,4.1963,4.1949,4.1956,4.1952,4.1936,4.1936,4.1959,4.1957,4.194,4.1983,4.196,4.1964,4.1984,4.1991,4.1997,4.1997,4.1911,0,0,0,0,0,4.1953,4.1966,4.1958,4.1983,4.1984,4.1974,4.1979,4.1969,4.197,4.1971,4.1966,4.1968,4.1977,4.1984,4.1992,4.2022,4.2021,4.2037,4.2043,4.2047,4.2051,4.2067,4.2074,4.1999,4.1999,4.1999,0,0,4.1976,4.1973,4.1982,4.199,4.199,4.2003,4.1974,4.1989,4.1998,4.1973,4.1993,4.199,4.199,4.2016,4.2027,4.2015,4.2071,4.2051,4.2055,4.2056,4.2071,4.2078,4.2084,4.2001,4.2,4.2,0,0,4.2024,4.2023,4.2044,4.2044,4.2045,4.2037,4.2042,4.2038,4.2035,4.2055,4.2036,4.2046,4.2063,4.2064,4.2067,4.2114,4.21,4.2118,4.2147,4.2163,4.2169,4.2174,4.2191,4.2198,4.2121,4.2121,4.2121,0,4.2052,4.2071,4.2056,4.2072,4.2076,4.2053,4.2074,4.2075,4.2078,4.2081,4.2068,4.2088,4.2086,4.2112,4.2124,4.2127,4.2132,4.2118,4.2169,4.2174,4.2179,4.2195,4.2202,4.2123,4.2123,4.2123,4.2123,0,4.2105,4.2119,4.2135,4.2139,4.2144,4.2163,4.2151,4.2158,4.2147,4.2141,4.2161,4.2159,4.2166,4.2171,4.2161,4.2195,4.2188,4.2172,4.2148,4.2188,4.2204,4.221,4.2127,4.2126,4.2125,4.2125,0,0,4.2176,4.2171,4.2177,4.2179,4.2177,4.2187,4.2204,4.2211,4.2217,4.222,4.2234,4.2248,4.2233,4.2237,4.2226,4.2239,4.2278,4.2222,4.2221,4.2233,4.2316,4.2328,4.2336,4.2267,4.2269,4.2269,4.2316,0,4.2223,4.2252,4.2239,4.227,4.2281,4.2259,4.2274,4.2275,4.2269,4.2278,4.2272,4.2283,4.2262,4.2264,4.2276,4.227,4.2294,4.2267,4.2281,4.2281,4.2282,4.2344,4.2357,4.2401,4.2322,4.2323,4.2323,0,4.2282,4.2287,4.2319,4.2314,4.2319,4.2333,4.2338,4.2347,4.2347,4.2342,4.2345,4.2331,4.2347,4.2323,4.2345,4.2327,4.2331,4.2329,4.2331,4.2332,4.2305,4.2347,4.2415,4.2422,4.2333,4.2332,4.2331,0,4.2331,4.2345,4.2366,4.2368,4.2363,4.2374,4.2372,4.2371,4.2376,4.238,4.2383,4.2389,4.2393,4.2398,4.2386,4.237,4.241,4.2385,4.2407,4.2407,4.2417,4.2417,4.2487,4.2419,4.2419,4.2419,4.2419,0,4.2385,4.2406,4.2388,4.2401,4.2423,4.2408,4.243,4.2426,4.2425,4.2436,4.2417,4.2429,4.2412,4.2422,4.2412,4.2432,4.2434,4.243,4.2428,4.2433,4.2433,4.2436,4.2433,4.2421,4.242,4.242,4.242,0,4.2444,4.2433,4.2455,4.2448,4.2447,4.2464,4.2458,4.247,4.2463,4.2478,4.248,4.2469,4.248,4.2468,4.2478,4.2471,4.2498,4.2491,4.2499,4.2497,4.252,4.2518,4.2595,4.2604,4.253,4.253,4.2531,0,4.248,4.2495,4.249,4.2497,4.2496,4.2507,4.2512,4.2497,4.2503,4.2503,4.2515,4.2523,4.253,4.2547,4.254,4.2547,4.254,4.2566,4.2541,4.2545,4.2541,4.2541,4.2542,4.2572,4.2573,4.2574,4.2574,0,4.2545,4.2538,4.2546,4.2552,4.2558,4.2562,4.2565,4.2571,4.2555,4.2563,4.2573,4.2578,4.2587,4.2596,4.2601,4.2599,4.2585,4.2582,4.2588,4.2593,4.2597,4.2596,4.2514,4.2581,4.258,4.2579,4.2579,4.2579,4.2593,4.2606,4.2604,4.2614,4.2614,4.2616,4.2627,4.2621,4.2629,4.2636,4.2626,4.2639,4.2638,4.2643,4.2643,4.2653,4.2641,4.2649,4.2652,4.2654,4.2658,4.2595,4.2653,4.2653,4.2653,4.2653,4.2653,0,4.2658,4.2655,4.2664,4.2668,4.2675,4.266,4.2661,4.2669,4.268,4.268,4.2687,4.2698,4.2707,4.27,4.2707,4.2716,4.2709,4.2718,4.2718,4.2718,4.2667,4.2662,4.2724,4.2724,4.2724,4.2724,4.2724,4.2724,4.2692,4.2712,4.2706,4.2725,4.2723,4.2735,4.2738,4.274,4.274,4.2754,4.2761,4.2756,4.2753,4.276,4.2767,4.2765,4.2768,4.278,4.2776,4.2728,4.2722,4.2715,4.271,4.2781,4.2781,4.2826,4.2826,4.2827]}]]